OBJECT AL, 69014

Orbit data source: Space-Track

You're viewing an Uncataloged Satellite

Recently launched and/or uncataloged satellites may have evolving metadata. Metadata may include but not limited to: Owner, Maufacturer, Bus, Motor, and Mission.

OBJECT AL, 69014 is a satellite in SSO that was launched on Sun, 03 May 2026 UTC launched from the Air Force Western Test Range (AFWTR). Unknown objects in Earth's orbit typically refer to objects detected orbiting the Earth but have not yet been identified or cataloged. These objects could be anything from previously untracked satellites, spent rocket stages, debris from satellite collisions, or even natural meteoroids temporarily captured by Earth's gravity.

Loading next visibility...
Identifier
69014, 2026-100AL
Orbit
SSO
Country
Flag of TBDTBD
Related business
None
Manufacturer
Unknown
Mission
Operational spacecraft
Bus & Motor
Unknown
Mass
Unknown
Launch date (UTC)
2026-05-03 (1 week ago)
Launch vehicle
Unknown
Launch site
Air Force Western Test Range (AFWTR)
Object type
Unknown
Shape & HBR
Unknown
Radar Cross Section
RCS unknown

Expand to show TLE details & history
Last TLE update: 12 hours ago

TLE from 12 hours ago
0 OBJECT AL
1 69014U 26100AL  26129.97841723  .00002660  00000-0  12346-3 0  9993
2 69014  97.4100  28.5014 0006037 173.4642 186.6673 15.20877805  1007
Epoch: 2026-05-09T23:28Z
TLE epoch observation values (Epoch: 2026-05-09T23:28:55.248Z)
Latitude
-0.00008°
Longitude
168.48311°
Altitude
510.41 km
Speed
7.606 km/s
True Right ascension
01h 54m 00s
True Declination
0° 00' 00"
Sunlit
Object was in daylight at epoch
Visualization orbit readout
Latitude
Unknown
Longitude
Unknown
Altitude
Unknown
Speed
Unknown
Apparent Right ascension
Unknown
Apparent Declination
Unknown
Sunlit
N/A
Visualization observer readout
Local Sidereal Time
19:43:41
Azimuth
Unknown
Elevation
Unknown
Doppler factor
Unknown
Orbital elements
Apogee altitude
504.309 km
Perigee altitude
496.004 km
Semi-major axis
6,878.293 km
Eccentricity
0.0006
Inclination
97.41°
RAAN
28.5014°
Arg. of periapsis
173.4642°
True anomaly
186.65927°
Mean anomaly
186.6673°
Eccentric anomaly
186.66329°
Mean motion
3.80471 °/min
Orbital period
94.62 mins
BSTAR
0.00012346
Loading maneuver chart data...
Computing Atmospheric mass density...
Loading historical data...
Loading historical data...
Loading historical data...
Loading historical data...
Loading historical data...
Loading historical data...
Loading historical data...

Documentation

Showing up to 5 results
|